Location: Hamburg
(53.5500°N, 10.0000°E)
Time: 09:42:08
(UTC+01:00)

ISS - Visible Passes

Search period start: 20 December 2014 00:00
Search period end: 30 December 2014 00:00
Orbit: 404 x 415 km, 51.6° (Epoch: 19 December)

Date Brightness Start Highest point End Pass type
(mag) Time Alt. Az. Time Alt. Az. Time Alt. Az.
20 Dec -2.9 16:55:49 10° WSW 16:59:05 61° S 17:02:21 10° E visible
20 Dec -2.6 18:32:18 10° W 18:35:29 47° SSW 18:35:29 47° SSW visible
21 Dec -2.8 17:41:32 10° W 17:44:47 56° S 17:46:54 19° ESE visible
21 Dec -0.6 19:18:16 10° W 19:19:40 19° WSW 19:19:40 19° WSW visible
22 Dec -2.9 16:50:45 10° W 16:54:01 62° S 16:57:16 10° ESE visible
22 Dec -1.8 18:27:20 10° W 18:30:19 32° SSW 18:31:08 28° S visible
23 Dec -2.2 17:36:25 10° W 17:39:33 42° SSW 17:42:41 10° SE visible
23 Dec -0.4 19:13:43 10° WSW 19:15:27 14° SW 19:15:27 14° SW visible
24 Dec -2.5 16:45:29 10° W 16:48:43 52° SSW 16:51:55 10° ESE visible
24 Dec -0.8 18:22:20 10° W 18:24:50 20° SSW 18:27:09 11° SSE visible
25 Dec -1.3 17:31:10 10° W 17:34:02 28° SSW 17:36:53 10° SE visible
26 Dec -0.1 18:17:51 10° WSW 18:19:01 12° SW 18:20:11 10° SSW visible
27 Dec -0.3 17:25:58 10° WSW 17:28:12 17° SW 17:30:24 10° S visible
